Terminal Aerodrome Forecast
Issued by NWS

Home | Current Version | Previous Version | Text Only | Print | Product List | Glossary Off
Versions: 1 2 3 4 5 6 7 8 9 10 11 12 13 14 15 16 17 18 19 20 21 22 23 24 25 26 27 28 29 30 31 32 33 34 35 36 37 38 39 40 41 42 43 44 45 46

944
FTUS43 KGRB 170350 AAA
TAFATW
TAF AMD
KATW 170350Z 1704/1724 12006KT P6SM SCT025 BKN100
      TEMPO 1704/1708 BKN025
     FM170800 15008KT P6SM SCT015 BKN025
     FM171200 17009G15KT P6SM OVC020
     FM171400 17013G22KT P6SM OVC020
     FM171800 18013G23KT P6SM -RA OVC025
     FM172100 18012G21KT P6SM -RA OVC015=

USA.gov is the U.S. government's official web portal to all federal, state and local government web resources and services.